Regional Weather Roundup
Issued by NWS Charleston, SC

Current Version | Previous Version | Text Only | Print | Product List | Glossary Off
Versions: 1 2 3 4 5 6 7 8 9 10 11 12 13 14 15 16 17 18 19 20 21 22 23 24 25 26 27 28 29 30 31 32 33 34 35 36 37 38 39 40 41 42 43 44 45 46 47 48 49 50

000
ASUS42 KCHS 281426
RWRCHS

REGIONAL WEATHER ROUNDUP
NATIONAL WEATHER SERVICE CHARLESTON SC
1000 AM EDT TUE JUL 28 2015

NOTE: "FAIR" INDICATES FEW OR NO CLOUDS BELOW 12,000 FEET WITH NO
SIGNIFICANT WEATHER AND/OR OBSTRUCTIONS TO VISIBILITY.

NOT ALL STATIONS ARE QUALITY CONTROLLED BY THE NATIONAL
WEATHER SERVICE. USE DATA WITH CAUTION...ESPECIALLY
DEWPOINT OBSERVATIONS.

SCZ027-030-031-034>040-042>050-281500-
...SOUTHEAST SOUTH CAROLINA...

CITY           SKY/WX    TMP DP  RH WIND       PRES   REMARKS
N CHARLESTON   MOSUNNY   84  75  74 NE8       29.99S HX  92
WATERFRONT PRK   N/A     83  77  81 NE6       29.97R HX  92
MOUNT PLEASANT FAIR      84  75  74 NE5       29.99S HX  92
JOHNS ISLAND   FAIR      86  75  70 NE7       29.99S HX  95
PINOPOLIS      NOT AVBL
MONCKS CORNER  FAIR      86  73  66 NE5       30.00S HX  93
SUMMERVILLE    PTSUNNY   84  77  79 CALM      30.01S HX  94
BEAUFORT MCAS  MOSUNNY   85  76  74 N6        30.00R HX  94
BEAUFORT ARPT  FAIR      82  77  83 CALM      29.99S HX  91
HILTON HEAD IS MOSUNNY   82  77  83 N9        30.00  HX  91
WALTERBORO     MOSUNNY   88  73  62 E6        30.01S HX  96
ALLENDALE      PTSUNNY   84  77  79 CALM      30.00F HX  94

...SOUTHERN MIDLANDS AND PEE DEE...

CITY           SKY/WX    TMP DP  RH WIND       PRES   REMARKS
GEORGETOWN     NOT AVBL
KINGSTREE      NOT AVBL
ORANGEBURG     MOSUNNY   83  74  74 SE3       30.02R
BARNWELL       PTSUNNY   86  75  70 N5        30.02S HX  95
AIKEN          FAIR      82  70  65 CALM      30.05F
MANNING        FAIR      82  70  65 CALM      30.01S
COLUMBIA       PTSUNNY   84  74  71 SE6       30.01S HX  91
SUMTER         PTSUNNY   85  71  64 N5        30.00R HX  90
FLORENCE       SUNNY     83  72  69 E6        30.02R
MYRTLE BEACH   MOSUNNY   84  72  65 E12       30.02R
N MYRTLE BEACH SUNNY     85  72  65 NE8       30.01R HX  91

$$

GAZ063-065-086>088-099>101-113>116-118-119-134>141-150-281500-
...SOUTHEAST GEORGIA...

CITY           SKY/WX    TMP DP  RH WIND       PRES   REMARKS
SAVANNAH ARPT  PTSUNNY   84  75  74 N7        30.00R HX  92
HUNTER AAF     MOSUNNY   84  79  84 VRB5      29.97S HX  96
FORT STEWART   MOSUNNY   82  77  83 NE6       29.98S HX  91
STATESBORO     MOSUNNY   83  83 100 E3        30.01S HX  98
SYLVANIA       MOSUNNY   85  78  80 CALM      30.02S HX  97
CLAXTON        FAIR      82  77  83 NE3       30.00F HX  91

...CSRA...CENTRAL AND FAR SOUTHEAST GEORGIA...

CITY           SKY/WX    TMP DP  RH WIND       PRES   REMARKS
THOMSON        SUNNY     87  76  69 S3        30.06S HX  98
AUGUSTA-BUSH   MOSUNNY   83  74  74 SE5       30.01R
AUGUSTA-DANIEL SUNNY     84  75  74 S3        30.03S HX  92
SWAINSBORO     FAIR      86  81  84 SE3       30.02F HX 102
VIDALIA        MOSUNNY   86  73  66 CALM      30.02S HX  93
EASTMAN        FAIR      85  79  81 CALM      30.03F HX  98
HAZLEHURST     FAIR      86  76  74 E3        30.00S HX  96
ALMA           MOSUNNY   82  76  81 NE5       30.00S
WAYCROSS       PTSUNNY   83  81  91 NE8       29.99F HX  97
JESUP          PTSUNNY   84  81  89 NE5       30.00S HX  98
BAXLEY         FAIR      82  77  83 NE5       30.01R HX  91
BRUNSWICK      CLOUDY    79  73  83 NE3       29.99R
SAINT SIMONS   CLOUDY    83  77  82 N6        29.97S HX  92

$$

SCZ027-028-034-036>038-045-046-048>050-GAZ119-141-281500-
...LAKE AND SUPPLEMENTAL COASTAL OBSERVATIONS...

STATION/POSITION TIME  TEMP    WIND        PRES    WAVE   SWELL
                       AIR SEA DIR/SP/G            HT/PER HT/PER/DIR
                 (UTC) (F)     (DEG/KT/KT) (MB)    (FT/S) (FT/S/D)
UPR LAKE MARION  NOT AVBL
WINYAH BAY       1345   82      70/ 10     1015.0R
LAKE MURRAY      1300   84      CALM  /  4 1015.6S
ACE BASIN NERRS  NOT AVBL
FORT PULASKI     1400   83 85   10/  6/  8 1015.9R
SAPELO ISLAND    1400   84      30/  6     1015.0S

$$

ANZ835-935-AMZ111-154-330-350-352-354-370-450-454-472-281500-
...C-MAN AND BUOY OBSERVATIONS...

STATION/POSITION TIME  TEMP    WIND        PRES    WAVE   SWELL
                       AIR SEA DIR/SP/G            HT/PER HT/PER/DIR
                 (UTC) (F)     (DEG/KT/KT) (MB)    (FT/S) (FT/S/D)
BUOY 41004       1350   83 84   50/ 10/ 12 1014.3S   3/ 7   3/ 7
BUOY 41008       1350   81 82   50/  4/  6 1015.3R   2/ 6   2/140/ 6
FOLLY BEACH CMAN 1400   83      50/ 11/ 12 1015.6R
CAPERS NEARSHORE 1308   82      70/ 12/ 16 1015.4R
FRIPP NEARSHORE  1300   83      40/  8/ 10 1014.9R


STATION/POSITION TIME  TEMP    WIND        PRES    WAVE   SWELL
                       AIR SEA DIR/SP/G            HT/PER HT/PER/DIR
                 (UTC) (F)     (DEG/KT/KT) (MB)    (FT/S) (FT/S/D)
5E ST. MARYS GA  1321      81                N/A     2/ 5
FRYING PAN BUOY  1350   83 83   80/ 16/ 17 1015.6R   4/ 7   2/180/ 7
BUOY 41025       NOT AVBL
CAPE LOOKOUT NC  1400   81      80/ 15/ 16 1016.0S
BUOY 41002       1350   77 82  250/ 19/ 23 1016.2R   7/ 7   2/170/10
BUOY 41010       1320   84 84  230/ 16/ 19 1015.6F
ST AUGUSTINE FL  1400   78 79  150/  5/  6 1015.2F


$$



USA.gov is the U.S. government's official web portal to all federal, state and local government web resources and services.